Location: Tr�vern
(48.0333°N, 4.6000°W)
Time: 02:52:55
(UTC+00:00)

Cosmos 1356 - Pass Details

Date: 14 July 2020
Orbit: 443 x 448 km, 81.1° (Epoch: 04 August)

Event Time Altitude Azimuth Distance (km) Brightness Sun altitude
Exits shadow 03:38:12 11° 219° (SW) 1,536 5.4 -8.0°
Maximum altitude 03:41:18 36° 287° (WNW) 735 4.2 -7.6°
Drops below altitude 10° 03:44:32 10° 355° (N) 1,583 6.8 -7.2°
Sets 03:46:43 0° 5° (N) 2,459 8.0 -6.9°
